When you browse on this site, cookies collect data to enhance your experience and personalize the content and advertising you see.
Visit our Privacy Policy to learn more. By continuing to use the site, you agree to this use of cookies and data.
  • în România
  • Lista ţărilor
  • Pe 7 zile
  • Temperatura apei
  • Meteo pe hartă
  • Widget-uri
  • user-avatar
    Intrare

    Meteo pe oră la Da Nang

    Astăzi, 11 Decembrie, Miercuri

    Timp Temperatura Precipitaţii Vânt Presiune Umiditate
    00:00 +20°C° 0 mm 1 m/s 761 mmHg 87%
    01:00 +19°C° 0 mm 1 m/s 761 mmHg 88%
    02:00 +19°C° 0 mm 1 m/s 760 mmHg 89%
    03:00 +19°C° 0 mm 1 m/s 760 mmHg 90%
    04:00 +18°C° 0 mm 1 m/s 760 mmHg 91%
    05:00 +18°C° 0 mm 1 m/s 760 mmHg 90%
    06:00 +19°C° 0 mm 1 m/s 761 mmHg 89%
    07:00 +18°C° 0 mm 2 m/s 761 mmHg 88%
    08:00 +21°C° 0 mm 1 m/s 761 mmHg 82%
    09:00 +23°C° 0 mm 1 m/s 762 mmHg 75%
    10:00 +24°C° 0 mm 1 m/s 762 mmHg 68%
    11:00 +25°C° 0 mm 1 m/s 761 mmHg 66%
    12:00 +26°C° 0 mm 2 m/s 761 mmHg 64%
    13:00 +26°C° 0 mm 2 m/s 760 mmHg 62%
    14:00 +26°C° 0 mm 2 m/s 759 mmHg 67%
    15:00 +25°C° 0 mm 2 m/s 759 mmHg 72%
    16:00 +24°C° 0 mm 2 m/s 759 mmHg 78%
    17:00 +23°C° 0 mm 2 m/s 759 mmHg 82%
    18:00 +21°C° 0 mm 2 m/s 760 mmHg 86%
    19:00 +21°C° 0 mm 2 m/s 760 mmHg 90%
    20:00 +21°C° 0 mm 1 m/s 761 mmHg 91%
    21:00 +21°C° 0 mm 1 m/s 761 mmHg 92%
    22:00 +21°C° 0 mm 1 m/s 762 mmHg 93%
    23:00 +21°C° 0 mm 1 m/s 761 mmHg 93%

    Mâine, 12 Decembrie, Joi

    Timp Temperatura Precipitaţii Vânt Presiune Umiditate
    00:00 +21°C° 0 mm 1 m/s 761 mmHg 94%
    01:00 +21°C° 0 mm 1 m/s 761 mmHg 94%
    02:00 +20°C° 0.1 mm 1 m/s 761 mmHg 94%
    03:00 +20°C° 0.1 mm 1 m/s 760 mmHg 94%
    04:00 +20°C° 0.1 mm 1 m/s 760 mmHg 95%
    05:00 +20°C° 0.2 mm 1 m/s 761 mmHg 94%
    06:00 +21°C° 0.2 mm 1 m/s 761 mmHg 93%
    07:00 +21°C° 0.2 mm 1 m/s 762 mmHg 93%
    08:00 +22°C° 0.2 mm 1 m/s 762 mmHg 92%
    09:00 +22°C° 0.2 mm 1 m/s 762 mmHg 92%
    10:00 +23°C° 0.2 mm 1 m/s 762 mmHg 91%
    11:00 +23°C° 0.2 mm 1 m/s 762 mmHg 90%
    12:00 +24°C° 0.2 mm 1 m/s 761 mmHg 89%
    13:00 +24°C° 0.2 mm 1 m/s 761 mmHg 87%
    14:00 +24°C° 0.4 mm 1 m/s 760 mmHg 90%
    15:00 +24°C° 0.4 mm 2 m/s 760 mmHg 92%
    16:00 +23°C° 0.4 mm 2 m/s 759 mmHg 95%
    17:00 +23°C° 0.4 mm 2 m/s 760 mmHg 95%
    18:00 +23°C° 0.4 mm 2 m/s 761 mmHg 96%
    19:00 +21°C° 0.4 mm 2 m/s 761 mmHg 96%
    20:00 +21°C° 0.3 mm 2 m/s 761 mmHg 96%
    21:00 +21°C° 0.3 mm 2 m/s 762 mmHg 95%
    22:00 +21°C° 0.3 mm 2 m/s 762 mmHg 95%
    23:00 +21°C° 0.2 mm 2 m/s 762 mmHg 95%

    Poimâine, 13 Decembrie, Vineri

    Timp Temperatura Precipitaţii Vânt Presiune Umiditate
    00:00 +21°C° 0.2 mm 2 m/s 761 mmHg 95%
    01:00 +21°C° 0.2 mm 2 m/s 761 mmHg 95%
    02:00 +21°C° 0.1 mm 2 m/s 761 mmHg 95%
    03:00 +21°C° 0.1 mm 1 m/s 761 mmHg 95%
    04:00 +21°C° 0.1 mm 1 m/s 761 mmHg 95%
    05:00 +21°C° 0 mm 1 m/s 761 mmHg 94%
    06:00 +21°C° 0 mm 1 m/s 762 mmHg 94%
    07:00 +21°C° 0 mm 1 m/s 762 mmHg 94%
    08:00 +23°C° 0.1 mm 1 m/s 762 mmHg 86%
    09:00 +25°C° 0.1 mm 1 m/s 763 mmHg 78%
    10:00 +27°C° 0.1 mm 1 m/s 763 mmHg 70%
    11:00 +27°C° 0.3 mm 1 m/s 762 mmHg 74%
    12:00 +27°C° 0.3 mm 2 m/s 761 mmHg 77%
    13:00 +27°C° 0.3 mm 2 m/s 761 mmHg 81%
    14:00 +26°C° 0.4 mm 2 m/s 761 mmHg 85%
    15:00 +25°C° 0.4 mm 2 m/s 760 mmHg 89%
    16:00 +25°C° 0.4 mm 2 m/s 760 mmHg 93%
    17:00 +24°C° 0.5 mm 2 m/s 761 mmHg 94%
    18:00 +24°C° 0.5 mm 2 m/s 761 mmHg 95%
    19:00 +23°C° 0.5 mm 1 m/s 761 mmHg 96%
    20:00 +23°C° 0.7 mm 2 m/s 762 mmHg 96%
    21:00 +23°C° 0.7 mm 2 m/s 762 mmHg 96%
    22:00 +23°C° 0.7 mm 2 m/s 762 mmHg 96%
    23:00 +23°C° 0.6 mm 2 m/s 762 mmHg 97%

    14 Decembrie, Sâmbătă

    Timp Temperatura Precipitaţii Vânt Presiune Umiditate
    00:00 +23°C° 0.6 mm 2 m/s 762 mmHg 97%
    01:00 +23°C° 0.6 mm 2 m/s 761 mmHg 97%
    02:00 +23°C° 0.6 mm 2 m/s 761 mmHg 97%
    03:00 +23°C° 0.6 mm 2 m/s 761 mmHg 97%
    04:00 +23°C° 0.6 mm 2 m/s 761 mmHg 97%
    05:00 +24°C° 0.6 mm 2 m/s 761 mmHg 97%
    06:00 +24°C° 0.6 mm 2 m/s 762 mmHg 97%
    07:00 +24°C° 0.6 mm 2 m/s 762 mmHg 97%
    08:00 +24°C° 0.6 mm 3 m/s 762 mmHg 96%
    09:00 +25°C° 0.6 mm 3 m/s 762 mmHg 95%
    10:00 +25°C° 0.6 mm 3 m/s 762 mmHg 94%
    11:00 +25°C° 0.5 mm 3 m/s 761 mmHg 94%
    12:00 +26°C° 0.5 mm 3 m/s 761 mmHg 93%
    13:00 +26°C° 0.5 mm 3 m/s 760 mmHg 93%
    14:00 +25°C° 0.4 mm 3 m/s 760 mmHg 94%
    15:00 +25°C° 0.4 mm 3 m/s 760 mmHg 94%
    16:00 +25°C° 0.4 mm 3 m/s 759 mmHg 95%
    17:00 +25°C° 0.3 mm 3 m/s 760 mmHg 95%
    18:00 +24°C° 0.3 mm 3 m/s 760 mmHg 96%
    19:00 +24°C° 0.3 mm 2 m/s 761 mmHg 97%
    20:00 +24°C° 0.3 mm 2 m/s 761 mmHg 97%
    21:00 +23°C° 0.3 mm 2 m/s 761 mmHg 97%
    22:00 +23°C° 0.3 mm 2 m/s 762 mmHg 97%
    23:00 +23°C° 0.3 mm 2 m/s 761 mmHg 97%

    15 Decembrie, Duminică

    Timp Temperatura Precipitaţii Vânt Presiune Umiditate
    00:00 +23°C° 0.3 mm 2 m/s 761 mmHg 97%
    01:00 +23°C° 0.3 mm 1 m/s 761 mmHg 97%
    02:00 +23°C° 0.2 mm 1 m/s 761 mmHg 97%
    03:00 +23°C° 0.2 mm 1 m/s 760 mmHg 96%
    04:00 +23°C° 0.2 mm 1 m/s 760 mmHg 96%
    05:00 +23°C° 0.1 mm 1 m/s 761 mmHg 96%
    06:00 +23°C° 0.1 mm 1 m/s 761 mmHg 96%
    07:00 +23°C° 0.1 mm 1 m/s 761 mmHg 95%
    08:00 +25°C° 0.3 mm 1 m/s 761 mmHg 92%
    09:00 +26°C° 0.3 mm 2 m/s 761 mmHg 88%
    10:00 +27°C° 0.3 mm 2 m/s 761 mmHg 85%
    11:00 +27°C° 0.4 mm 2 m/s 761 mmHg 86%
    12:00 +27°C° 0.4 mm 2 m/s 760 mmHg 88%
    13:00 +27°C° 0.4 mm 2 m/s 759 mmHg 89%
    14:00 +27°C° 0.3 mm 2 m/s 759 mmHg 90%
    15:00 +26°C° 0.3 mm 2 m/s 759 mmHg 91%
    16:00 +26°C° 0.3 mm 2 m/s 759 mmHg 93%
    17:00 +25°C° 0.2 mm 2 m/s 759 mmHg 94%
    18:00 +25°C° 0.2 mm 1 m/s 759 mmHg 95%
    19:00 +24°C° 0.2 mm 1 m/s 760 mmHg 96%
    20:00 +24°C° 0.2 mm 1 m/s 760 mmHg 96%
    21:00 +24°C° 0.2 mm 1 m/s 760 mmHg 96%
    22:00 +24°C° 0.2 mm 1 m/s 761 mmHg 96%
    23:00 +23°C° 0.1 mm 1 m/s 760 mmHg 96%

    16 Decembrie, Luni

    Timp Temperatura Precipitaţii Vânt Presiune Umiditate
    00:00 +23°C° 0.1 mm 1 m/s 760 mmHg 96%
    01:00 +23°C° 0.1 mm 1 m/s 760 mmHg 96%
    02:00 +23°C° 0.1 mm 1 m/s 760 mmHg 95%
    03:00 +23°C° 0.1 mm 1 m/s 760 mmHg 95%
    04:00 +23°C° 0.1 mm 1 m/s 759 mmHg 95%
    05:00 +24°C° 0.1 mm 1 m/s 760 mmHg 95%
    06:00 +24°C° 0.1 mm 1 m/s 760 mmHg 95%
    07:00 +24°C° 0.1 mm 1 m/s 760 mmHg 95%
    08:00 +25°C° 0.1 mm 1 m/s 760 mmHg 92%
    09:00 +26°C° 0.1 mm 1 m/s 760 mmHg 89%
    10:00 +27°C° 0.1 mm 1 m/s 760 mmHg 87%
    11:00 +28°C° 0.3 mm 1 m/s 759 mmHg 85%
    12:00 +28°C° 0.3 mm 1 m/s 759 mmHg 84%
    13:00 +29°C° 0.3 mm 1 m/s 758 mmHg 82%
    14:00 +29°C° 0.1 mm 1 m/s 758 mmHg 84%
    15:00 +28°C° 0.1 mm 2 m/s 758 mmHg 85%
    16:00 +28°C° 0.1 mm 2 m/s 758 mmHg 86%
    17:00 +27°C° 0 mm 1 m/s 758 mmHg 89%
    18:00 +26°C° 0 mm 1 m/s 758 mmHg 93%
    19:00 +22°C° 0 mm 0 m/s 759 mmHg 96%
    20:00 +22°C° 0 mm 0 m/s 759 mmHg 96%
    21:00 +24°C° 0 mm 1 m/s 759 mmHg 96%
    22:00 +24°C° 0 mm 1 m/s 760 mmHg 96%
    23:00 +24°C° 0 mm 1 m/s 759 mmHg 95%
    Arată mai mult